Preview of NWS' New Version of Forecast
This preview is not operational and should not be used for support decisions.
Latest weather observations around

Canton, Cherokee County Airport (KCNI)

Using English Units (Switch to International System of Units)
Date/ Time (EDT) Wind (mph) Vis. (mi) Weather Sky Cond. Temp (°F) Rel. Humidity Wind Chill (°F) Heat Index (°F) Pressure Precip. (in)
Air Dwpt 6 hour Altimeter (inHg) Sea level (inHg) 1 hr 3 hr 6 hr
Max Min
Notice The following observation data may not be complete
Apr 20 22:15   10 Cloudy OVC055          %              
Apr 20 21:55 Calm 10 Cloudy SCT036 OVC055 45 45     100%     29.94        
Apr 20 21:35 NW 3 10 Cloudy BKN035 BKN043 OVC055 45 45     100% 43   29.93        
Apr 20 21:15 WNW 6 10 Cloudy BKN032 OVC039 45 45     100% 41   29.93        
Apr 20 20:55 WNW 5 10 Cloudy SCT018 BKN032 OVC041 45 45     100% 42   29.92        
Apr 20 20:35 WNW 5 10 Cloudy SCT018 BKN033 OVC039 45 45     100% 42   29.91        
Apr 20 20:15 NW 6 7 Cloudy SCT028 OVC032 45 45     100% 41   29.9        
Apr 20 19:55 NW 5 5 Fog/Mist BKN026 OVC032 45 43     93% 42   29.9        
Apr 20 19:35 WNW 7 10 Cloudy OVC028 46 43     87% 43   29.9        
Apr 20 19:15 W 6 10 Cloudy SCT029 BKN033 OVC039 46 43     87% 43   29.89        
Apr 20 18:55 W 10 10 Cloudy BKN033 BKN040 OVC050 46 43     87% 41   29.88        
Apr 20 18:35 WNW 10 10 Cloudy SCT017 SCT042 OVC050 46 43     87% 41   29.87        
Apr 20 18:15 W 9 10 Cloudy BKN019 BKN029 OVC046 46 43     87% 42   29.87        
Apr 20 17:55 W 13 10 Light Rain BKN014 BKN019 OVC043 46 43     87% 41   29.86        
Apr 20 17:35 W 9 4 Cloudy BKN012 OVC020 46 45     93% 42   29.85        
Apr 20 17:15 WSW 10 7 Cloudy BKN012 OVC022 46 45     93% 41   29.84        
Apr 20 16:55 W 13 4 Cloudy BKN010 OVC014 45 43     93% 38   29.83        
Apr 20 16:35 WSW 13 5 Light Drizzle BKN010 OVC017 46 45     93% 41   29.82        
Apr 20 16:15 WSW 10 10 Cloudy BKN010 OVC016 46 45     93% 41   29.82        
Apr 20 15:55 W 11 5 Light Rain BKN014 BKN020 OVC041 46 45     93% 41   29.81        
Apr 20 15:35 WSW 9 5 Rain SCT013 BKN024 OVC040 46 45     93% 42   29.8        
Apr 20 15:15 W 9 5 Light Rain SCT018 BKN026 OVC030 46 43     87% 42   29.8        
Apr 20 14:55 W 10 7 Cloudy BKN020 OVC033 46 41     81% 41   29.79        
Apr 20 14:35 W 10 10 Cloudy SCT025 BKN034 OVC043 46 41     81% 41   29.79        
Apr 20 14:15 W 9 7 Light Rain SCT018 BKN028 OVC045 46 41     81% 42   29.79        
Apr 20 13:55 WNW 11 10 Cloudy SCT018 BKN032 OVC060 46 41     81% 41   29.78        
Apr 20 13:35 W 10 10 Light Rain BKN019 BKN028 OVC040 46 39     76% 41   29.78        
Apr 20 13:15 WSW 11 10 Cloudy OVC019 46 41     81% 41   29.78        
Apr 20 12:55 WSW 10 10 Cloudy BKN017 OVC024 46 39     76% 41   29.77        
Apr 20 12:35 W 7 7 Cloudy SCT017 OVC028 45 39     81% 41   29.76        
Apr 20 12:15 W 7 10 Cloudy SCT015 BKN020 OVC033 46 41     81% 43   29.76        
Apr 20 11:55 W 6 7 Cloudy SCT016 BKN022 OVC034 46 41     81% 43   29.76        
Apr 20 11:35 W 13 10 Cloudy BKN016 BKN022 OVC034 45 41     87% 38   29.75        
Apr 20 11:15 W 8 10 Cloudy BKN016 OVC023 45 41     87% 40   29.74        
Apr 20 10:55 WSW 7 10 Mostly Cloudy BKN014 BKN020 BKN060 45 43     93% 41   29.73        
Apr 20 10:35 W 7 4 Light Rain BKN012 OVC019 45 41     87% 41   29.73        
Apr 20 10:15 WSW 6 10 Cloudy BKN012 OVC016 45 41     87% 41   29.72        
Apr 20 09:55 WSW 9 10 Cloudy BKN009 OVC014 45 43     93% 40   29.71        
Apr 20 09:35 WSW 7 10 Cloudy OVC009 43 41     93% 39   29.7        
Apr 20 09:15 SW 8 7 Light Drizzle BKN009 OVC014 43 41     93% 38   29.69        
Apr 20 08:55 SW 7 7 Rain OVC011 43 41     93% 39   29.69        
Apr 20 08:35 WSW 7 7 Light Rain OVC011 43 41     93% 39   29.69        
Apr 20 08:15 WSW 8 7 Light Drizzle SCT010 BKN015 OVC022 43 41     93% 38   29.68        
Apr 20 07:55 WSW 9 7 Drizzle BKN013 BKN020 OVC025 43 41     93% 37   29.68        
Apr 20 07:35 WSW 6 10 Drizzle SCT011 BKN021 OVC026 43 41     93% 39   29.67        
Apr 20 07:15 WSW 6 10 Drizzle SCT009 BKN014 OVC019 43 41     93% 39   29.66        
Apr 20 06:55 WSW 6 7 Light Rain OVC007 43 41     93% 39   29.65        
Apr 20 06:35 SW 10 7 Light Rain OVC007 43 41     93% 37   29.64        
Apr 20 06:15 WSW 8 4 Drizzle OVC009 43 41     93% 38   29.64        
Apr 20 05:55 WSW 7 10 Light Drizzle BKN009 OVC014 43 41     93% 39   29.64        
Apr 20 05:35 WSW 9 7 Rain BKN009 BKN014 OVC027 43 41     93% 37   29.64        
Apr 20 05:15 WSW 9 7 Light Drizzle BKN008 BKN012 OVC021 43 41     93% 37   29.64        
Apr 20 04:55 SW 8 7 Light Rain OVC010 43 41     93% 38   29.64        
Apr 20 04:35 SW 9 3 Light Rain BKN010 BKN017 OVC023 43 41     93% 37   29.64        
Apr 20 04:15 WSW 6 7 Light Drizzle SCT009 OVC014 43 41     93% 39   29.65        
Apr 20 03:55 SW 6 10 Cloudy BKN015 OVC020 43 41     93% 39   29.65        
Apr 20 03:35 WSW 5 10 Cloudy BKN014 OVC019 43 39     87% 40   29.66        
Apr 20 03:15 WSW 9 10 Cloudy BKN016 BKN026 OVC031 43 37     81% 37   29.66        
Apr 20 02:55 WSW 9 10 Cloudy BKN016 BKN021 OVC028 43 37     81% 37   29.66        
Apr 20 02:35 SW 8 10 Cloudy BKN016 OVC028 43 39     87% 38   29.66        
Apr 20 02:15 WSW 7 10 Cloudy SCT016 OVC026 43 39     87% 39   29.66        
Apr 20 01:55 WSW 8 10 Cloudy OVC016 43 39     87% 38   29.67        
Apr 20 01:35 SW 11 10 Cloudy OVC014 45 39     81% 39   29.67        
Apr 20 01:15 SW 8 10 Cloudy OVC014 45 41     87% 40   29.66        
Apr 20 00:55 WSW 3 10 Cloudy OVC014 45 41     87% 43   29.66        
Apr 20 00:35 WSW 8 7 Cloudy BKN014 OVC022 45 43     93% 40   29.65        
Apr 20 00:15 WSW 8 10 Cloudy SCT014 BKN018 OVC024 45 43     93% 40   29.65        
Apr 19 23:55 WSW 11 10 Cloudy BKN012 OVC019 45 43     93% 39   29.64        
Apr 19 23:35 WSW 7 10 Cloudy BKN012 OVC019 45 43     93% 41   29.64        
Apr 19 23:15 W 11 10 Cloudy SCT009 BKN018 OVC030 45 43     93% 39   29.63        
Apr 19 22:55 WSW 15 4 Fog/Mist BKN011 OVC016 46 45     93% 40   29.63        
Apr 19 22:35 WSW 14 5 Light Drizzle BKN013 OVC020 46 45     93% 40   29.62        
Apr 19 22:15 W 9 10 Cloudy OVC016 46 45     93% 42   29.62        
Apr 19 21:55 W 15 10 Cloudy OVC016 46 45     93% 40   29.62        
Apr 19 21:35 WSW 8 10 Cloudy BKN010 OVC014 48 46     93% 45   29.61        
Apr 19 21:15 WSW 13 5 Fog/Mist BKN010 OVC016 50 46     87%     29.6        
Apr 19 20:55 WSW 14 10 Cloudy BKN009 OVC016 50 46     87%     29.59        
Apr 19 20:35 WSW 17 7 Cloudy OVC011 50 48     94%     29.59        
Apr 19 20:15 WSW 13 7 Light Rain BKN009 OVC013 50 50     100%     29.57        
Apr 19 19:55 W 13 4 Light Rain BKN012 OVC020 52 50     94%     29.56        
Apr 19 19:35 WSW 11 4 Rain BKN012 BKN019 OVC043 52 50     94%     29.54        
Apr 19 19:15 W 9 7 Cloudy BKN014 BKN024 OVC032 54 50     88%     29.53        
Apr 19 18:55 W 16 10 Cloudy BKN016 BKN024 OVC031 55 50     82%     29.52        
Apr 19 18:35 WSW 8 10 Cloudy BKN016 OVC043 55 52     88%     29.51        
Apr 19 18:15 WSW 10 10 Light Drizzle SCT013 BKN035 OVC044 55 52     88%     29.51        
Apr 19 17:55 W 10 3 Light Drizzle BKN013 OVC022 55 52     88%     29.5        
Apr 19 17:35 WSW 16 10 Cloudy BKN013 OVC024 57 52     82%     29.5        
Apr 19 17:15 W 10 10 Light Drizzle SCT017 OVC025 59 54     82%     29.48        
Apr 19 16:55 WSW 10 10 Cloudy SCT016 BKN023 OVC085 59 54     82%     29.48        
Apr 19 16:35 WSW 14 10 Cloudy BKN014 BKN020 OVC085 61 55     82%     29.49        
Apr 19 16:15 SW 13 10 Cloudy BKN014 OVC029 63 57     83%     29.49        
Apr 19 15:55 WSW 9 10 Cloudy BKN012 BKN017 OVC055 61 59     94%     29.47        
Apr 19 15:35 WSW 13 10 Light Rain SCT012 BKN050 OVC070 61 59     94%     29.48        
Apr 19 15:15 WSW 13 4 Light Rain SCT025 BKN045 OVC070 61 59     94%     29.48        
Apr 19 14:55 WSW 11 10 Mostly Cloudy BKN025 BKN032 68 59     73%     29.45        
Apr 19 14:35 SW 11 10 Partly Cloudy SCT018 SCT024 SCT029 68 59     73%     29.44        
Apr 19 14:15 W 9 10 Cloudy BKN016 BKN026 OVC050 66 61     83%     29.45        
Apr 19 13:55 WSW 10 10 Light Rain SCT014 BKN034 OVC050 64 61     88%     29.46        
Apr 19 13:35 WSW 5 10 Mostly Cloudy SCT012 SCT027 BKN038 68 63     83%     29.46        
Apr 19 13:15 WSW 6 10 Cloudy BKN010 BKN025 OVC065 66 63     88%     29.46        
Apr 19 12:55 WSW 5 10 Cloudy BKN005 BKN009 OVC065 64 64     100%     29.46        
Apr 19 12:35 Calm 10 Cloudy BKN005 OVC009 64 64     100%     29.47        
Apr 19 12:15 S 5 10 Light Drizzle BKN003 BKN008 OVC070 64 64     100%     29.48        
Apr 19 11:55 SSE 6 4 Rain BKN003 BKN009 OVC035 63 63     100%     29.49        
Apr 19 11:35 SE 3 7 Light Rain OVC003 63 63     100%     29.5        
Apr 19 11:15 ESE 8 7 Rain OVC003 63 63     100%     29.5        
Apr 19 10:55 E 5 5 Rain OVC003 63 63     100%     29.51        
Apr 19 10:35 E 7 10 Light Drizzle SCT003 BKN023 OVC028 63 63     100%     29.51        
Apr 19 10:15 E 6 2.5 Rain BKN003 BKN023 OVC039 61 61     100%     29.52        
Apr 19 09:55 E 5 1.75 Heavy Rain OVC003 61 61     100%     29.54        
Apr 19 09:35 ESE 3 2.5 Heavy Rain BKN003 OVC007 61 61     100%     29.55        
Apr 19 09:15 E 3 3 Heavy Rain OVC003 61 61     100%     29.53        
Apr 19 08:55 ENE 7 1.75 Rain OVC003 61 61     100%     29.53        
Apr 19 08:35 E 3 3 Heavy Rain OVC003 61 61     100%     29.54        
Apr 19 08:15 ENE 7 5 Rain OVC003 61 61     100%     29.54        
Apr 19 07:55 Calm 3 Heavy Rain OVC003 61 61     100%     29.56        
Apr 19 07:35 E 3 4 Rain OVC003 61 61     100%     29.56        
Apr 19 07:15 E 7 2.5 Heavy Rain OVC003 61 61     100%     29.57        
Apr 19 06:55 ESE 6 7 Rain OVC005 61 61     100%     29.58        
Apr 19 06:35 SE 9 5 Rain OVC005 63 63     100%     29.58        
Apr 19 06:15 SSE 11 4 Heavy Rain BKN005 OVC016 63 63     100%     29.58        
Apr 19 05:55 SSE 6 3 Rain SCT005 BKN014 OVC090 64 64     100%     29.57        
Apr 19 05:35 ESE 3 4 Heavy Rain SCT009 BKN020 OVC090 64 64     100%     29.57        
Apr 19 05:15 S 9 7 Rain SCT003 BKN010 OVC090 63 63     100%     29.61        
Apr 19 04:55 ESE 8 2 Rain BKN004 OVC009 63 63     100%     29.59        
Apr 19 04:35 WNW 6 2 Heavy Rain OVC004 63 63     100%     29.59        
Apr 19 04:15 E 7 1.75 Heavy Rain OVC004 63 63     100%     29.59        
Apr 19 03:55 E 7 3 Heavy Rain BKN004 OVC023 63 63     100%     29.59        
Apr 19 03:35 ENE 3 7 Rain OVC004 63 63     100%     29.62        
Apr 19 03:15 Calm 10 Light Rain BKN004 OVC041 63 63     100%     29.63        
Apr 19 02:55 E 5 10 Cloudy SCT004 SCT065 OVC085 63 63     100%     29.64        
Apr 19 02:35 E 5 10 Cloudy SCT006 BKN085 OVC100 63 63     100%     29.66        
Apr 19 02:15 ENE 5 10 Light Rain SCT006 SCT055 OVC090 63 63     100%     29.68        
Apr 19 01:55 E 7 7 Light Rain SCT005 SCT060 OVC100 63 63     100%     29.72        
Apr 19 01:35 ESE 6 3 Heavy Rain SCT008 SCT065 OVC100 63 63     100%     29.75        
Apr 19 01:15 E 7 3 Heavy Rain SCT055 BKN080 OVC100 63 61     94%     29.77        
Apr 19 00:55 Calm 5 Rain SCT038 BKN050 OVC055 63 61     94%     29.81        
Apr 19 00:35 SSW 8 5 Heavy Rain SCT034 BKN042 OVC060 63 61     94%     29.83        
Apr 19 00:15   7 Heavy Rain SCT041 BKN060 OVC110 70 57     64%     29.83        
Apr 18 23:55 SSE 14 10 Cloudy SCT055 SCT070 OVC110 72 54     53%   71 29.75        
Apr 18 23:35 SE 15 10 Cloudy SCT048 BKN055 OVC110 72 54     53%   71 29.77        
Apr 18 23:15 S 13 10 Cloudy BKN048 BKN055 OVC110 72 54     53%   71 29.79        
Apr 18 22:55 SSE 10 10 Cloudy SCT050 SCT060 OVC120 72 54     53%   71 29.78        
Apr 18 22:35 ESE 10 10 Cloudy BKN050 OVC060 72 54     53%   71 29.79        
Apr 18 22:15 SE 7 10 Mostly Cloudy BKN050 72 54     53%   71 29.79        
Apr 18 21:55 SE 8 10 Partly Cloudy SCT055 72 54     53%   71 29.8        
Apr 18 21:35 ESE 8 10 Clear CLR 72 54     53%   71 29.79        
Apr 18 21:15 SE 8 10 Partly Cloudy SCT060 72 54     53%   71 29.79        
Apr 18 20:55 SE 9 10 Partly Cloudy SCT060 SCT070 73 54     50%   73 29.8        
Apr 18 20:35 SE 8 10 Mostly Cloudy SCT050 BKN080 73 54     50%   73 29.8        
Apr 18 20:15 SE 8 10 Mostly Cloudy SCT050 BKN070 73 52     47%   73 29.82        
Apr 18 19:55 SSE 8 10 Partly Cloudy SCT065 SCT070 73 52     47%   73 29.81        
Apr 18 19:35 SSE 6 10 Partly Cloudy SCT065 75 52     44%   74 29.81        
Apr 18 19:15 SSE 11 10 Mostly Cloudy SCT050 BKN065 75 52     44%   74 29.82        
Apr 18 18:55 SSE 9 10 Mostly Cloudy SCT050 BKN065 77 54     44%   76 29.82        
Apr 18 18:35 SSE 8 10 Partly Cloudy SCT065 77 54     44%   76 29.81        
Apr 18 18:15 SSE 11 10 Partly Cloudy SCT050 SCT065 77 54     44%   76 29.81        
Apr 18 17:55 SE 7 10 Mostly Cloudy BKN050 BKN065 79 52     39%   78 29.82        
Apr 18 17:35 S 13 10 Mostly Cloudy BKN050 79 50     37%   78 29.83        
Apr 18 17:15 S 11 10 Mostly Cloudy BKN050 81 50     34%   80 29.84        
Apr 18 16:55 S 16 10 Partly Cloudy SCT050 SCT065 SCT075 79 52     39%   78 29.85        
Apr 18 16:35 SSE 15 10 Mostly Cloudy BKN048 BKN065 79 54     42%   78 29.86        
Apr 18 16:15 S 11 10 Partly Cloudy SCT048 SCT065 79 54     42%   78 29.87        
Apr 18 15:55 SSE 13 10 Partly Cloudy SCT048 SCT065 SCT070 79 54     42%   78 29.88        
Apr 18 15:35 S 10 10 Mostly Cloudy SCT048 SCT055 BKN065 79 54     42%   78 29.89        
Apr 18 15:15 SSE 11 10 Mostly Cloudy BKN048 BKN060 77 54     44%   76 29.91        
Apr 18 14:55 SSE 9 10 Partly Cloudy SCT041 SCT048 SCT060 77 54     44%   76 29.92        
Apr 18 14:35 S 11 10 Mostly Cloudy SCT041 SCT060 BKN065 77 54     44%   76 29.94        
Apr 18 14:15 SSE 14 10 Mostly Cloudy SCT041 SCT050 BKN060 77 55     47%   77 29.95        
Apr 18 13:55 SSW 10 10 Mostly Cloudy BKN043 BKN050 BKN060 77 54     44%   76 29.97        
Apr 18 13:35 S 11 10 Mostly Cloudy SCT037 BKN043 BKN050 75 55     50%   75 29.98        
Apr 18 13:15 S 11 10 Mostly Cloudy BKN037 BKN043 BKN050 75 55     50%   75 30        
Apr 18 12:55 S 10 10 Mostly Cloudy BKN032 BKN043 BKN050 73 57     57%   73 30        
Apr 18 12:35 S 9 10 Cloudy SCT031 BKN037 OVC043 73 57     57%   73 30.01        
Apr 18 12:15 S 8 10 Cloudy OVC043 72 59     65%   71 30.02        
Apr 18 11:55 S 10 10 Cloudy OVC043 72 59     65%   71 30.03        
Apr 18 11:35 SSE 5 10 Cloudy SCT021 OVC041 70 59     69%     30.04        
Apr 18 11:15 ESE 7 10 Cloudy BKN021 OVC041 68 59     73%     30.03        
Apr 18 10:55 SE 7 10 Cloudy BKN019 OVC041 68 59     73%     30.03        
Apr 18 10:35 ESE 6 10 Cloudy SCT018 OVC041 68 59     73%     30.02        
Apr 18 10:15 ESE 6 10 Cloudy OVC041 66 59     78%     30.03        
Apr 18 09:55 E 3 10 Cloudy OVC041 64 59     83%     30.03        
Apr 18 09:35 Calm 10 Mostly Cloudy BKN041 64 57     77%     30.03        
Apr 18 09:15 Calm 10 Clear CLR 63 55     77%     30.03        
Apr 18 08:55 ENE 3 10 Clear CLR 63 55     77%     30.02        
Apr 18 08:35 Calm 10 Partly Cloudy SCT016 63 55     77%     30.01        
Apr 18 08:15 Calm 10 Clear CLR 61 55     82%     30.01        
Apr 18 07:55 Calm 10 Clear CLR 59 55     88%     30        
Apr 18 07:35 Calm 10 Clear CLR 59 55     88%     30        
Apr 18 07:15 Calm 10 Clear CLR 59 54     82%     29.99        
Apr 18 06:55 Calm 10 Clear CLR 59 55     88%     29.99        
Apr 18 06:35 E 3 10 Clear CLR 61 55     82%     29.98        
Apr 18 06:15 Calm 10 Clear CLR 61 55     82%     29.98        
Apr 18 05:55 Calm 10 Partly Cloudy SCT038 61 55     82%     29.98        
Apr 18 05:35 Calm 10 Partly Cloudy SCT038 61 55     82%     29.98        
Apr 18 05:15 Calm 10 Clear CLR 61 54     77%     29.98        
Apr 18 04:55 Calm 10 Clear CLR 63 54     72%     29.97        
Apr 18 04:35 Calm 10 Clear CLR 63 54     72%     29.98        
Apr 18 04:15 ENE 3 10 Clear CLR 63 54     72%     29.98        
Apr 18 03:55 Calm 10 Clear CLR 63 54     72%     29.97        
Apr 18 03:35 Calm 10 Clear CLR 63 54     72%     29.98        
Apr 18 03:15 ENE 3 10 Clear CLR 63 54     72%     29.98        
Apr 18 02:55 Calm 10 Clear CLR 61 54     77%     30        
Apr 18 02:35 Calm 10 Clear CLR 64 52     64%     30.01        
Apr 18 02:15 ESE 3 10 Clear CLR 64 52     64%     30.01        
Apr 18 01:55 Calm 10 Clear CLR 64 52     64%     30.02        
Apr 18 01:35 Calm 10 Clear CLR 64 52     64%     30.03        
Apr 18 01:15 Calm 10 Clear CLR 66 52     60%     30.04        
Apr 18 00:55 SSE 3 10 Clear CLR 66 52     60%     30.04        
Apr 18 00:35 Calm 10 Clear CLR 66 52     60%     30.05        
Apr 18 00:15 SE 3 10 Clear CLR 68 52     56%     30.05        
Apr 17 23:55 SSE 3 10 Clear CLR 68 52     56%     30.06        
Apr 17 23:35 Calm 10 Clear CLR 68 50     53%     30.06        
Apr 17 23:15 Calm 10 Clear CLR 68 50     53%     30.07        
Apr 17 22:55 SSE 3 10 Clear CLR 68 50     53%     30.07        
Apr 17 22:35 SE 3 10 Clear CLR 70 48     46%     30.08        
Apr 17 22:15 Calm 10 Clear CLR 70 48     46%     30.08        
May 15 14:55 ESE 11 10 Mostly Cloudy SCT028 BKN032 BKN120 82        %     30.01        
May 15 13:55 ENE 6 10 Partly Cloudy SCT120 81 63     54%   82 30.03        
May 15 07:35 Calm 10 Mostly Cloudy SCT027 BKN036 BKN070 70 63     78%     30.07        
May 14 21:35 Calm 10 Clear CLR 81        %     30        
May 14 20:15 Calm 10 Clear CLR 84        %     30        
May 14 11:55 WNW 5 10 Clear CLR 86        %     30.08        
Notice The following observation data may not be complete
May 14 09:55 Calm 10 Clear CLR   61      %     30.09        
May 14 08:35 Calm 10 Clear CLR 68 63     83%     30.09        
May 14 05:35 Calm 7 Clear CLR 63 61     94%     30.05        
May 14 00:35 Calm 10 Clear CLR 70 61     73%              
May 13 20:55 Calm 10 Clear CLR 79 59     51%   79 30.08        
May 13 13:15 WNW 10 10 Clear   86        %     30.15        
May 13 05:55 Calm 10 Clear CLR 59 54     82%     30.13        
May 13 05:15 Calm 10 Clear CLR 61 57     88%     30.12        
May 13 01:15 Calm 10 Clear CLR 63 55     77%     30.12        
May 12 18:15 WNW 5 10 Clear CLR 88        %     30.13        
May 12 14:35 W 3 10 Clear CLR 88        %     30.17        
May 12 08:15 Calm 7 Clear CLR 64 61     88%     30.2        
May 12 07:35 Calm 7 Clear CLR 63 61     94%     30.19        
May 12 04:35 Calm 4 Clear   63 61     94%     30.15        
May 11 21:55 Calm 10 Clear CLR 72 63     73%   72 30.13        
Notice The following observation data may not be complete
May 11 20:55 Calm 10 Clear CLR          %     30.12        
May 11 19:55 Calm 10 Clear CLR 82        %     30.11        
May 11 19:35 Calm 10 Clear CLR 84        %     30.11        
May 11 14:35 Calm 10 Clear CLR 86        %     30.14        
May 11 11:35 WNW 8 10 Clear CLR 81        %     30.18        
May 11 09:55 Calm 10 Clear CLR 73 63     69%   74 30.17        
Jun 12 08:55 Calm 10 Cloudy BKN008 OVC012 72 66     83%   72 30.25        
Jun 12 02:35 Calm 10 Clear CLR 73 64     73%   74 30.21        
Jun 11 23:35 E 3 10 Mostly Cloudy SCT029 BKN049 77 63     61%   77 30.21        
Jun 11 22:55 ESE 3 10 Partly Cloudy SCT049 77        %     30.21        
Jun 11 19:55 Calm 10 Partly Cloudy SCT055 82        %     30.17        
Jun 11 16:15 E 8 10 Partly Cloudy SCT038 88        %     30.2        
Jun 11 15:15 E 6 10 Mostly Cloudy SCT037 SCT042 BKN055 86        %     30.22        
Jun 11 07:35 Calm 10 Partly Cloudy SCT008 64 61     88%     30.21        
Jun 10 23:15 Calm 10 Clear CLR 73        %     30.18        
Jun 10 22:35 Calm 10 Clear CLR 75        %     30.16        
Jun 10 19:55 Calm 10 Mostly Cloudy BKN060 BKN075 82        %     30.11        
Jun 10 19:35 Calm 10 Partly Cloudy SCT060 81        %     30.1        
Jun 10 16:15 ENE 5 10 Partly Cloudy SCT055 SCT080 86        %     30.12        
Jun 10 11:35 Calm 10 Partly Cloudy SCT070 79        %     30.15        
Jun 10 11:15 Calm 10 Partly Cloudy SCT060 SCT070 77        %     30.16        
Jun 10 10:55 Calm 10 Mostly Cloudy SCT050 BKN070 77        %     30.16        
Jun 10 05:55 Calm 5 Fog/Mist CLR 59 55     88%     30.07        
Jun 10 05:15 Calm 5 Fog/Mist CLR 59 55     88%     30.06        
Jun 09 18:15 WNW 7 10 Clear CLR 81 46     30%   80 29.97        
Notice The following observation data may not be complete
Jun 09 15:35   10 Partly Cloudy SCT070          %              
Notice The following observation data may not be complete
Jun 09 15:15   10 Clear CLR          %              
Jun 09 14:55 WNW 3 10 Clear CLR 81        %     30        
Jun 09 09:55 Calm 10 Clear CLR 70 55     60%     30.02        
Jun 09 06:15 Calm 5 Fog/Mist CLR 59 55     88%     29.97        
Jun 08 23:35 Calm 10 Clear CLR 66 59     78%     29.93        
Jun 08 13:35 SSW 3 10 Partly Cloudy SCT036 SCT060 SCT085 75 48     38%   74 29.95        
Jun 08 12:35 ENE 3 10 Partly Cloudy SCT031 SCT041 SCT050 73        %     29.96        
Jun 08 10:15 ENE 7 10 Partly Cloudy SCT016 SCT100 70 54     56%     29.97        
Jun 08 09:35 ENE 5 10 Partly Cloudy SCT012 68 54     60%     29.97        
Jun 07 23:35 Calm 10 Light Drizzle SCT037 SCT042 OVC050 66 59     78%     29.91        
Jun 07 22:55 Calm 10 Cloudy BKN036 BKN055 OVC070 68 55     64%     29.91        
Jun 07 19:55 E 5 10 Mostly Cloudy SCT050 BKN075 77 52     41%   76 29.86        
Jun 07 16:15 Calm 10 Mostly Cloudy SCT060 BKN090 77 52     41%   76 29.85        
Jun 07 13:35 E 3 10 Clear CLR 79        %     29.86        
Notice The following observation data may not be complete
Jun 07 09:35   10 Mostly Cloudy BKN060 BKN070          %              
Jun 06 15:15 WNW 3 10 Clear CLR 79 61     54%   79 29.8        
Jun 06 06:35 Calm 1.25 Fog/Mist BKN009 70 66     88%     29.84        
Jun 06 05:55 Calm 1.5 Light Rain SCT005 BKN120 70 68     94%     29.84        
Notice The following observation data may not be complete
Jun 06 04:35   5 Fog/Mist OVC003          %              
Notice The following observation data may not be complete
Jun 06 03:35   7 Partly Cloudy SCT003 SCT080 SCT120          %              
Jun 06 01:35 Calm 7 Partly Cloudy SCT120 70 68     94%     29.86        
Jun 05 22:55 W 3 10 Clear   72 68     88%   73 29.87